This is the latest recevied weather packets stored in our database for station/object R1CBW-13. If no packets are shown the sender has not sent any weather packets the latest 10 day(s).
| Time | Temp. | Humidity | Pressure | Rain* | Wind** | Luminosity | Snow |
|---|---|---|---|---|---|---|---|
| 1776950117 | 3.89° C | 35% | 1006.1 hPa | 0 mm | - | - | - |
| 1776950057 | 4.44° C | 35% | 1006.1 hPa | 0 mm | - | - | - |
| 1776949997 | 3.89° C | 35% | 1006.1 hPa | 0 mm | - | - | - |
| 1776949937 | 3.89° C | 35% | 1006.1 hPa | 0 mm | - | - | - |
| 1776949877 | 3.33° C | 36% | 1006.1 hPa | 0 mm | - | - | - |
| 1776949817 | 3.33° C | 36% | 1006.1 hPa | 0 mm | - | - | - |
| 1776949757 | 3.33° C | 35% | 1006.1 hPa | 0 mm | - | - | - |
| 1776949697 | 3.89° C | 35% | 1006.2 hPa | 0 mm | - | - | - |
| 1776949637 | 3.89° C | 35% | 1006.1 hPa | 0 mm | - | - | - |
| 1776949577 | 3.33° C | 35% | 1006.2 hPa | 0 mm | - | - | - |
| 1776949517 | 4.44° C | 34% | 1006.2 hPa | 0 mm | - | - | - |
| 1776949457 | 5° C | 34% | 1006.2 hPa | 0 mm | - | - | - |
| 1776949397 | 5° C | 34% | 1006 hPa | 0 mm | - | - | - |
| 1776949337 | 5° C | 34% | 1006.1 hPa | 0 mm | - | - | - |
| 1776949277 | 3.89° C | 36% | 1006.1 hPa | 0 mm | - | - | - |
| 1776949217 | 3.33° C | 36% | 1006.1 hPa | 0 mm | - | - | - |
| 1776949157 | 4.44° C | 35% | 1006.2 hPa | 0 mm | - | - | - |
| 1776949097 | 3.33° C | 36% | 1006.1 hPa | 0 mm | - | - | - |
| 1776949036 | 3.89° C | 36% | 1006.2 hPa | 0 mm | - | - | - |
| 1776948977 | 3.89° C | 37% | 1006.4 hPa | 0 mm | - | - | - |
| 1776948916 | 3.89° C | 37% | 1006.1 hPa | 0 mm | - | - | - |
| 1776948856 | 3.89° C | 38% | 1006.2 hPa | 0 mm | - | - | - |
| 1776948796 | 3.33° C | 38% | 1006.1 hPa | 0 mm | - | - | - |
| 1776948736 | 3.89° C | 38% | 1006.1 hPa | 0 mm | - | - | - |
| 1776948676 | 3.89° C | 37% | 1006 hPa | 0 mm | - | - | - |
* Rain latest hour (hover to see other rain measurements)
** Current wind speed in m/s (hover to see current wind gust speed)